Time,TemperatureF,DewpointF,PressureIn,WindDirection,WindDirectionDegrees,WindSpeedMPH,WindSpeedGustMPH,Humidity,HourlyPrecipIn,Conditions,Clouds,dailyrainin,SoftwareType,DateUTC
2013-05-15 00:03:00,71.0,55.0,30.10,SSW,212,3.0,6.0,58,0.00,,,0.00,,2013-05-15 04:03:00,
2013-05-15 00:12:00,71.0,55.0,30.10,SSW,212,3.0,6.0,58,0.00,,,0.00,,2013-05-15 04:12:00,
2013-05-15 00:24:00,72.0,55.0,30.10,SSW,195,5.0,8.0,56,0.00,,,0.00,,2013-05-15 04:24:00,
2013-05-15 00:33:00,72.0,55.0,30.10,SSW,198,5.0,9.0,55,0.00,,,0.00,,2013-05-15 04:33:00,
2013-05-15 00:42:00,72.0,55.0,30.10,SSW,198,5.0,9.0,55,0.00,,,0.00,,2013-05-15 04:42:00,
2013-05-15 00:52:00,72.0,54.0,30.11,SSW,192,7.0,12.0,54,0.00,,,0.00,,2013-05-15 04:52:00,
2013-05-15 01:02:00,72.0,55.0,30.11,SW,236,6.0,12.0,55,0.00,,,0.00,,2013-05-15 05:02:00,
2013-05-15 01:12:00,72.0,55.0,30.11,SW,236,6.0,12.0,55,0.00,,,0.00,,2013-05-15 05:12:00,
2013-05-15 01:22:00,71.0,55.0,30.11,SSW,211,4.0,9.0,57,0.00,,,0.00,,2013-05-15 05:22:00,
2013-05-15 01:32:00,70.0,55.0,30.11,SW,218,4.0,8.0,60,0.00,,,0.00,,2013-05-15 05:32:00,
2013-05-15 01:42:00,70.0,55.0,30.11,SW,218,4.0,8.0,60,0.00,,,0.00,,2013-05-15 05:42:00,
2013-05-15 01:52:00,69.0,55.0,30.11,SW,223,3.0,8.0,62,0.00,,,0.00,,2013-05-15 05:52:00,
2013-05-15 02:02:00,68.0,55.0,30.11,SW,225,4.0,7.0,64,0.00,,,0.00,,2013-05-15 06:02:00,
2013-05-15 02:11:00,68.0,55.0,30.11,SW,225,4.0,7.0,64,0.00,,,0.00,,2013-05-15 06:11:00,
2013-05-15 02:21:00,67.0,54.0,30.11,SSW,213,5.0,8.0,64,0.00,,,0.00,,2013-05-15 06:21:00,
2013-05-15 02:32:00,67.0,55.0,30.11,SW,221,4.0,8.0,65,0.00,,,0.00,,2013-05-15 06:32:00,
2013-05-15 02:42:00,67.0,55.0,30.11,SW,221,4.0,8.0,65,0.00,,,0.00,,2013-05-15 06:42:00,
2013-05-15 02:52:00,67.0,55.0,30.11,SSW,196,5.0,9.0,66,0.00,,,0.00,,2013-05-15 06:52:00,
2013-05-15 03:01:00,67.0,55.0,30.12,SW,225,5.0,9.0,66,0.00,,,0.00,,2013-05-15 07:01:00,
2013-05-15 03:11:00,67.0,55.0,30.12,SW,225,5.0,9.0,66,0.00,,,0.00,,2013-05-15 07:11:00,
2013-05-15 03:21:00,66.0,55.0,30.12,SSW,207,4.0,8.0,67,0.00,,,0.00,,2013-05-15 07:21:00,
2013-05-15 03:32:00,66.0,55.0,30.11,SSW,206,5.0,8.0,68,0.00,,,0.00,,2013-05-15 07:32:00,
2013-05-15 03:41:00,66.0,55.0,30.11,SSW,206,5.0,8.0,68,0.00,,,0.00,,2013-05-15 07:41:00,
2013-05-15 03:52:00,66.0,56.0,30.11,SSW,210,3.0,7.0,69,0.00,,,0.00,,2013-05-15 07:52:00,
2013-05-15 04:02:00,65.0,55.0,30.12,SW,219,2.0,6.0,71,0.00,,,0.00,,2013-05-15 08:02:00,
2013-05-15 04:12:00,65.0,55.0,30.12,SW,219,2.0,6.0,71,0.00,,,0.00,,2013-05-15 08:12:00,
2013-05-15 04:21:00,64.0,55.0,30.11,SW,219,0.0,5.0,72,0.00,,,0.00,,2013-05-15 08:21:00,
2013-05-15 04:32:00,64.0,55.0,30.11,SW,219,0.0,5.0,72,0.00,,,0.00,,2013-05-15 08:32:00,
2013-05-15 04:42:00,64.0,55.0,30.11,SW,219,0.0,5.0,72,0.00,,,0.00,,2013-05-15 08:42:00,
2013-05-15 04:53:00,63.0,55.0,30.11,SW,219,2.0,4.0,74,0.00,,,0.00,,2013-05-15 08:53:00,
2013-05-15 05:01:00,64.0,55.0,30.11,SSW,197,4.0,7.0,73,0.00,,,0.00,,2013-05-15 09:01:00,
2013-05-15 05:11:00,64.0,55.0,30.11,SSW,197,4.0,7.0,73,0.00,,,0.00,,2013-05-15 09:11:00,
2013-05-15 05:21:00,64.0,55.0,30.11,SW,215,3.0,7.0,72,0.00,,,0.00,,2013-05-15 09:21:00,
2013-05-15 05:33:00,64.0,55.0,30.11,SSW,209,4.0,7.0,73,0.00,,,0.00,,2013-05-15 09:33:00,
2013-05-15 05:42:00,64.0,55.0,30.11,SSW,209,4.0,7.0,73,0.00,,,0.00,,2013-05-15 09:42:00,
2013-05-15 05:53:00,63.0,55.0,30.11,SSW,202,3.0,7.0,74,0.00,,,0.00,,2013-05-15 09:53:00,
2013-05-15 06:02:00,63.0,55.0,30.11,SW,235,1.0,5.0,76,0.00,,,0.00,,2013-05-15 10:02:00,
2013-05-15 06:12:00,63.0,55.0,30.11,SW,235,1.0,5.0,76,0.00,,,0.00,,2013-05-15 10:12:00,
2013-05-15 06:22:00,62.0,55.0,30.12,SSW,209,2.0,5.0,77,0.00,,,0.00,,2013-05-15 10:22:00,
2013-05-15 06:32:00,61.0,54.0,30.12,SSW,207,2.0,6.0,78,0.00,,,0.00,,2013-05-15 10:32:00,
2013-05-15 06:42:00,61.0,54.0,30.12,SSW,207,2.0,6.0,78,0.00,,,0.00,,2013-05-15 10:42:00,
2013-05-15 06:52:00,61.0,55.0,30.13,SW,219,2.0,5.0,80,0.00,,,0.00,,2013-05-15 10:52:00,
2013-05-15 07:09:00,61.0,55.0,30.13,SSW,208,2.0,6.0,81,0.00,,,0.00,,2013-05-15 11:09:00,
2013-05-15 07:17:00,61.0,55.0,30.13,SSW,208,2.0,6.0,81,0.00,,,0.00,,2013-05-15 11:17:00,
2013-05-15 07:26:00,61.0,55.0,30.13,SSW,212,3.0,6.0,82,0.00,,,0.00,,2013-05-15 11:26:00,
2013-05-15 07:47:00,61.0,56.0,30.13,SW,219,3.0,7.0,83,0.00,,,0.00,,2013-05-15 11:47:00,
2013-05-15 07:55:00,61.0,56.0,30.13,SSW,207,3.0,6.0,84,0.00,,,0.00,,2013-05-15 11:55:00,
2013-05-15 08:07:00,61.0,56.0,30.14,SSW,211,2.0,6.0,85,0.00,,,0.00,,2013-05-15 12:07:00,
2013-05-15 08:14:00,61.0,56.0,30.14,SSW,211,2.0,6.0,85,0.00,,,0.00,,2013-05-15 12:14:00,
2013-05-15 08:28:00,61.0,56.0,30.14,SW,217,3.0,6.0,85,0.00,,,0.00,,2013-05-15 12:28:00,
2013-05-15 08:36:00,61.0,56.0,30.14,SSW,205,2.0,5.0,85,0.00,,,0.00,,2013-05-15 12:36:00,
2013-05-15 08:47:00,61.0,56.0,30.14,SSW,205,2.0,5.0,85,0.00,,,0.00,,2013-05-15 12:47:00,
2013-05-15 08:54:00,62.0,57.0,30.15,SW,219,3.0,6.0,84,0.00,,,0.00,,2013-05-15 12:54:00,
2013-05-15 09:09:00,63.0,58.0,30.15,SSW,204,4.0,7.0,84,0.00,,,0.00,,2013-05-15 13:09:00,
2013-05-15 09:46:00,66.0,60.0,30.14,SW,231,4.0,10.0,82,0.00,,,0.00,,2013-05-15 13:46:00,
2013-05-15 10:05:00,68.0,62.0,30.15,SSW,200,4.0,10.0,81,0.00,,,0.00,,2013-05-15 14:05:00,
2013-05-15 10:14:00,68.0,62.0,30.15,SSW,200,4.0,10.0,81,0.00,,,0.00,,2013-05-15 14:14:00,
2013-05-15 11:08:00,73.0,64.0,30.14,SW,223,7.0,10.0,73,0.00,,,0.00,,2013-05-15 15:08:00,
2013-05-15 11:16:00,73.0,64.0,30.14,SW,223,7.0,10.0,73,0.00,,,0.00,,2013-05-15 15:16:00,
2013-05-15 11:27:00,73.0,64.0,30.14,SW,217,7.0,10.0,73,0.00,,,0.00,,2013-05-15 15:27:00,
2013-05-15 11:36:00,74.0,64.0,30.14,SSW,206,4.0,10.0,70,0.00,,,0.00,,2013-05-15 15:36:00,
2013-05-15 11:47:00,74.0,64.0,30.14,SSW,206,4.0,10.0,70,0.00,,,0.00,,2013-05-15 15:47:00,
2013-05-15 11:56:00,75.0,63.0,30.14,SSW,198,6.0,12.0,66,0.00,,,0.00,,2013-05-15 15:56:00,
2013-05-15 12:09:00,75.0,61.0,30.13,SW,214,6.0,11.0,62,0.00,,,0.00,,2013-05-15 16:09:00,
2013-05-15 12:21:00,75.0,61.0,30.13,SW,214,6.0,11.0,62,0.00,,,0.00,,2013-05-15 16:21:00,
2013-05-15 12:27:00,75.0,62.0,30.13,South,190,3.0,11.0,65,0.00,,,0.00,,2013-05-15 16:27:00,
2013-05-15 12:35:00,76.0,62.0,30.12,SSW,195,6.0,12.0,63,0.00,,,0.00,,2013-05-15 16:35:00,
2013-05-15 12:47:00,76.0,62.0,30.12,SSW,195,6.0,12.0,63,0.00,,,0.00,,2013-05-15 16:47:00,
2013-05-15 12:53:00,77.0,61.0,30.12,South,187,5.0,11.0,58,0.00,,,0.00,,2013-05-15 16:53:00,
2013-05-15 13:08:00,78.0,61.0,30.11,SW,223,5.0,17.0,55,0.00,,,0.00,,2013-05-15 17:08:00,
2013-05-15 13:18:00,78.0,61.0,30.11,SW,223,5.0,17.0,55,0.00,,,0.00,,2013-05-15 17:18:00,
2013-05-15 13:26:00,78.0,59.0,30.11,SW,227,8.0,15.0,53,0.00,,,0.00,,2013-05-15 17:26:00,
2013-05-15 13:45:00,79.0,60.0,30.11,SSW,212,7.0,15.0,52,0.00,,,0.00,,2013-05-15 17:45:00,
2013-05-15 14:15:00,80.0,58.0,30.10,SW,217,7.0,16.0,47,0.00,,,0.00,,2013-05-15 18:15:00,
2013-05-15 14:26:00,80.0,59.0,30.09,SW,218,9.0,16.0,48,0.00,,,0.00,,2013-05-15 18:26:00,
2013-05-15 14:46:00,81.0,60.0,30.09,South,181,9.0,15.0,49,0.00,,,0.00,,2013-05-15 18:46:00,
2013-05-15 14:54:00,80.0,58.0,30.07,SSW,209,8.0,17.0,47,0.00,,,0.00,,2013-05-15 18:54:00,
2013-05-15 15:08:00,81.0,59.0,30.07,SSW,197,5.0,16.0,48,0.00,,,0.00,,2013-05-15 19:08:00,
2013-05-15 15:15:00,81.0,59.0,30.07,SSW,197,5.0,16.0,48,0.00,,,0.00,,2013-05-15 19:15:00,
2013-05-15 15:29:00,80.0,59.0,30.07,SE,145,8.0,17.0,48,0.00,,,0.00,,2013-05-15 19:29:00,
2013-05-15 15:37:00,80.0,57.0,30.06,SSW,194,9.0,16.0,46,0.00,,,0.00,,2013-05-15 19:37:00,
2013-05-15 15:45:00,80.0,57.0,30.06,SSW,194,9.0,16.0,46,0.00,,,0.00,,2013-05-15 19:45:00,
2013-05-15 15:54:00,80.0,56.0,30.05,South,191,9.0,16.0,44,0.00,,,0.00,,2013-05-15 19:54:00,
2013-05-15 16:07:00,80.0,58.0,30.05,SSW,194,6.0,18.0,47,0.00,,,0.00,,2013-05-15 20:07:00,
2013-05-15 16:17:00,80.0,58.0,30.05,SSW,194,6.0,18.0,47,0.00,,,0.00,,2013-05-15 20:17:00,
2013-05-15 16:27:00,81.0,60.0,30.04,South,191,5.0,13.0,49,0.00,,,0.00,,2013-05-15 20:27:00,
2013-05-15 16:37:00,81.0,61.0,30.04,South,185,6.0,13.0,51,0.00,,,0.00,,2013-05-15 20:37:00,
2013-05-15 16:46:00,81.0,61.0,30.04,South,185,6.0,13.0,51,0.00,,,0.00,,2013-05-15 20:46:00,
2013-05-15 16:53:00,80.0,59.0,30.03,South,172,7.0,11.0,49,0.00,,,0.00,,2013-05-15 20:53:00,
2013-05-15 17:07:00,80.0,59.0,30.02,SSW,199,7.0,15.0,48,0.00,,,0.00,,2013-05-15 21:07:00,
2013-05-15 17:19:00,80.0,59.0,30.02,SSW,199,7.0,15.0,48,0.00,,,0.00,,2013-05-15 21:19:00,
2013-05-15 17:27:00,80.0,57.0,30.02,SSE,166,11.0,16.0,45,0.00,,,0.00,,2013-05-15 21:27:00,
2013-05-15 17:39:00,79.0,59.0,30.02,SSE,168,9.0,15.0,51,0.00,,,0.00,,2013-05-15 21:39:00,
2013-05-15 17:49:00,79.0,59.0,30.02,SSE,168,9.0,15.0,51,0.00,,,0.00,,2013-05-15 21:49:00,
2013-05-15 17:56:00,79.0,61.0,30.01,South,186,8.0,14.0,54,0.00,,,0.00,,2013-05-15 21:56:00,
2013-05-15 18:09:00,79.0,59.0,30.01,SW,226,7.0,12.0,50,0.00,,,0.00,,2013-05-15 22:09:00,
2013-05-15 18:17:00,79.0,59.0,30.01,SW,226,7.0,12.0,50,0.00,,,0.00,,2013-05-15 22:17:00,
2013-05-15 18:28:00,79.0,58.0,30.00,South,183,6.0,13.0,49,0.00,,,0.00,,2013-05-15 22:28:00,
2013-05-15 18:39:00,78.0,58.0,30.00,SSE,164,5.0,12.0,51,0.00,,,0.00,,2013-05-15 22:39:00,
2013-05-15 18:48:00,78.0,58.0,30.00,SSE,164,5.0,12.0,51,0.00,,,0.00,,2013-05-15 22:48:00,
2013-05-15 18:54:00,78.0,60.0,29.99,SSW,194,2.0,7.0,54,0.00,,,0.00,,2013-05-15 22:54:00,
2013-05-15 19:07:00,78.0,59.0,29.99,South,186,4.0,9.0,53,0.00,,,0.00,,2013-05-15 23:07:00,
2013-05-15 19:15:00,78.0,59.0,29.99,South,186,4.0,9.0,53,0.00,,,0.00,,2013-05-15 23:15:00,
2013-05-15 19:27:00,77.0,60.0,29.99,SSW,198,4.0,7.0,55,0.00,,,0.00,,2013-05-15 23:27:00,
2013-05-15 19:38:00,77.0,60.0,29.98,South,175,3.0,7.0,55,0.00,,,0.00,,2013-05-15 23:38:00,
2013-05-15 19:54:00,77.0,60.0,29.97,South,176,3.0,6.0,56,0.00,,,0.00,,2013-05-15 23:54:00,
2013-05-15 20:05:00,77.0,61.0,29.97,South,170,4.0,9.0,57,0.00,,,0.00,,2013-05-16 00:05:00,
2013-05-15 20:16:00,77.0,61.0,29.97,South,170,4.0,9.0,57,0.00,,,0.00,,2013-05-16 00:16:00,
2013-05-15 20:25:00,76.0,59.0,29.98,South,185,4.0,7.0,56,0.00,,,0.00,,2013-05-16 00:25:00,
2013-05-15 20:35:00,76.0,60.0,29.98,South,189,4.0,8.0,57,0.00,,,0.00,,2013-05-16 00:35:00,
2013-05-15 20:48:00,76.0,60.0,29.98,SSE,166,3.0,7.0,58,0.00,,,0.00,,2013-05-16 00:48:00,
2013-05-15 20:54:00,76.0,60.0,29.98,SSE,166,3.0,7.0,58,0.00,,,0.00,,2013-05-16 00:54:00,
2013-05-15 21:06:00,76.0,60.0,29.97,South,190,3.0,7.0,58,0.00,,,0.00,,2013-05-16 01:06:00,
2013-05-15 21:16:00,76.0,60.0,29.97,South,190,3.0,7.0,58,0.00,,,0.00,,2013-05-16 01:16:00,
2013-05-15 21:28:00,75.0,60.0,29.97,SSW,198,3.0,10.0,59,0.00,,,0.00,,2013-05-16 01:28:00,
2013-05-15 21:36:00,75.0,60.0,29.97,South,171,3.0,7.0,60,0.00,,,0.00,,2013-05-16 01:36:00,
2013-05-15 21:48:00,75.0,60.0,29.97,South,171,3.0,7.0,60,0.00,,,0.00,,2013-05-16 01:48:00,
2013-05-15 21:56:00,74.0,60.0,29.97,SSE,159,2.0,5.0,61,0.00,,,0.00,,2013-05-16 01:56:00,
2013-05-15 22:07:00,74.0,60.0,29.96,SSW,198,2.0,5.0,62,0.00,,,0.00,,2013-05-16 02:07:00,
2013-05-15 22:26:00,74.0,60.0,29.96,South,190,1.0,6.0,62,0.00,,,0.00,,2013-05-16 02:26:00,
2013-05-15 22:37:00,73.0,60.0,29.97,South,171,0.0,4.0,64,0.00,,,0.00,,2013-05-16 02:37:00,
2013-05-15 22:46:00,73.0,60.0,29.97,South,171,0.0,4.0,64,0.00,,,0.00,,2013-05-16 02:46:00,
2013-05-15 22:53:00,73.0,60.0,29.97,South,171,0.0,4.0,64,0.00,,,0.00,,2013-05-16 02:53:00,
2013-05-15 23:07:00,73.0,61.0,29.98,SSE,167,1.0,3.0,65,0.00,,,0.00,,2013-05-16 03:07:00,
2013-05-15 23:15:00,73.0,61.0,29.98,SSE,167,1.0,3.0,65,0.00,,,0.00,,2013-05-16 03:15:00,
2013-05-15 23:25:00,73.0,61.0,29.98,SSE,167,0.0,1.0,65,0.00,,,0.00,,2013-05-16 03:25:00,
2013-05-15 23:45:00,72.0,60.0,29.99,SSE,167,0.0,1.0,67,0.00,,,0.00,,2013-05-16 03:45:00,
2013-05-15 23:54:00,72.0,60.0,29.98,South,173,0.0,3.0,67,0.00,,,0.00,,2013-05-16 03:54:00,